Location: Unspecified
(0.0000°N, 0.0000°E)
Time: 11:02:17
(UTC+00:00)

Courier 1B - Pass Details

Date: 21 November 2019
Orbit: 963 x 1209 km, 28.3° (Epoch: 14 December)

Event Time Altitude Azimuth Distance (km) Brightness Sun altitude
Rises 21:38:09 0° 214° (SW) 4,074 11.3 -52.9°
Enters shadow 21:41:59 - 196° (SSW) 3,190 10.5 -53.7°
Reaches altitude 10° 21:42:17 10° 194° (SSW) 3,133 - -53.7°
Maximum altitude 21:46:57 17° 157° (SSE) 2,669 - -54.7°
Drops below altitude 10° 21:51:37 10° 120° (ESE) 3,139 - -55.6°
Sets 21:55:45 0° 101° (E) 4,085 - -56.4°
